COSMOS 917 DEB, 26964

Orbit data source: Space-Track

COSMOS 917 DEB, 26964 is space debris originally from a launch on Thu, 16 Jun 1977 UTC launched from the Plesetsk Missile And Space Complex (PKMTR). Debris objects in space refer to the collection of defunct objects orbiting the Earth. Examples of debris include non-operational satellites, rocket bodies, and fragments generated from explosions, collisions, or faulty payload assembly.

Loading next visibility...
Identifier
26964, 1977-047E
Orbit
Molniya
Country
Flag of CISCIS
Related business
Manufacturer
Unknown
Mission
Spacecraft
Bus & Motor
Unknown
Mass
Unknown
Launch date (UTC)
1977-06-16 (49 years ago)
Launch vehicle
Unknown
Launch site
Plesetsk Missile And Space Complex (PKMTR)
Object type
Payload
Rocket body
Debris
Shape & HBR
Unknown shape, 0.3 m
Radar Cross Section
Medium (>0.1 m² and <1 m²)

Expand to show TLE details & history
Last TLE update: 3 days ago

TLE from 3 days ago
0 COSMOS 917 DEB
1 26964U 77047E   26170.63614186 -.00000096  00000-0  00000-0 0  9999
2 26964  61.6419 290.6482 7253930  38.5015 355.3961  2.02644014577428
Epoch: 2026-06-19T15:16Z
TLE epoch observation values (Epoch: 2026-06-19T15:16:02.656Z)
Latitude
0.00005°
Longitude
153.78352°
Altitude
1,600.648 km
Speed
9.21 km/s
True Right ascension
19h 22m 37s
True Declination
0° 00' 00"
Sunlit
Object was in full shadow at epoch
Visualization orbit readout
Latitude
Unknown
Longitude
Unknown
Altitude
Unknown
Speed
Unknown
Apparent Right ascension
Unknown
Apparent Declination
Unknown
Sunlit
N/A
Visualization observer readout
Local Sidereal Time
23:07:30
Azimuth
Unknown
Elevation
Unknown
Doppler factor
Unknown
Orbital elements
Apogee altitude
39,133.312 km
Perigee altitude
865.293 km
Semi-major axis
26,377.439 km
Eccentricity
0.72539
Inclination
61.6419°
RAAN
290.6482°
Arg. of periapsis
38.5015°
True anomaly
320.73794°
Mean anomaly
355.3961°
Eccentric anomaly
343.80225°
Mean motion
0.50663 °/min
Orbital period
710.57 mins
BSTAR
0
Loading maneuver chart data...
Computing Atmospheric mass density...
Loading historical data...
Loading historical data...
Loading historical data...
Loading historical data...
Loading historical data...
Loading historical data...
Loading historical data...

Documentation

Showing up to 5 results
|